Regional Weather Roundup
Issued by NWS Midland/Odessa, TX

Skip options and go directly to product.
Home | Oldest Version | Previous Version | Current Version | All | Text Only | Save Text | Print | Product List | Glossary On

Skip product version selection by date and time.   
985
ASUS44 KMAF 271501
RWRMAF
MIDLAND AREA WEATHER ROUNDUP
NATIONAL WEATHER SERVICE MIDLAND TX
1000 AM CDT SAT AUG 27 2016

...IN SOUTHWEST TEXAS AND SOUTHEAST NEW MEXICO...

CITY           SKY/WX    TMP DP  RH WIND       PRES   REMARKS
ALPINE         SUNNY     74  60  62 S12       30.22F
ANDREWS        NOT AVBL
ARTESIA        SUNNY     70  68  94 S8        30.12S
BIG SPRING     SUNNY     78  70  77 S12       30.12S
CARLSBAD       SUNNY     71  64  78 MISG      30.10S
DRYDEN           N/A     75  70  84 VRB7      30.06R
FORT STOCKTON  SUNNY     74  62  66 S8        30.10R
GUAD PASS      SUNNY     66  60  81 SW8       30.23S
HOBBS          SUNNY     72  72 100 SE9       30.14S
MARFA          SUNNY    N/A N/A N/A SE8       30.21F
MIDLAND AIRPK  SUNNY     78  66  66 SE13      30.10F
MIDLAND INTL   SUNNY     76  66  71 S14       30.10F
ODESSA         SUNNY     75  64  68 S13       30.11S
PECOS          SUNNY     72  64  76 CALM      30.07F
PRESIDIO       NOT AVBL
SEMINOLE       SUNNY     73  64  72 CALM      30.13S
SNYDER           N/A     76  67  75 S8        30.09S
WINK           SUNNY     75  64  68 S9        30.08S
$$
...OTHER STATIONS IN TEXAS...

CITY           SKY/WX    TMP DP  RH WIND       PRES   REMARKS
ABILENE        SUNNY     80  70  71 SW9       30.06S
AMARILLO       SUNNY     70  62  76 S12       30.13R
AUSTIN         MOSUNNY   81  74  79 E3        30.02S
BROWNSVILLE    PTSUNNY   88  75  65 NE3       29.96R
CORPUS CHRISTI MOSUNNY   85  77  77 N9        29.98R
DALLAS FTW     MOSUNNY   82  71  69 SE7       30.04S
DEL RIO        PTSUNNY   79  73  82 SE6       30.01R
EL PASO        MOSUNNY   75  61  61 SE7       30.11S
HOUSTON INT    PTSUNNY   78  74  87 VRB6      30.02R
LUBBOCK        MOSUNNY   74  64  71 W8        30.11S
SAN ANGELO     SUNNY     82  69  64 SW10      30.06F
SAN ANTONIO    MOSUNNY   82  72  71 VRB3      30.02F
WACO           MOSUNNY   79  75  87 E5        30.04S
WICHITA FALLS  NOT AVBL
$$
...OTHER LOCATIONS IN NEW MEXICO...

CITY           SKY/WX    TMP DP  RH WIND       PRES   REMARKS
ALAMAGORDO     SUNNY     70  57  64 N3        30.15S
ALBUQUERQUE    MOSUNNY   68  51  54 VRB3      30.22R
CANNON AFB     SUNNY     72  61  68 SW9       30.14F
CLOVIS         SUNNY     70  61  73 SW8       30.15S
HOLLOMAN AFB   SUNNY     71  58  63 NW6       30.13R
ROSWELL        SUNNY     71  62  73 S8        30.12S
RUIDOSO          N/A     63  48  59 NW3       30.31S
SANTA FE       SUNNY     63  51  65 N7        30.26R
TRUTH OR CONSE SUNNY     73  51  46 CALM      30.17S
TUCUMCARI      SUNNY     73  63  70 SW12      30.12R
$$

USA.gov is the U.S. government's official web portal to all federal, state and local government web resources and services.